SCP
0 0 0 0 0 0 0 0 0 0 0 0 0 0 0 0 0 0 0 0 0 0 0 0 0 0 0 0 0 0 0 0 0 0 0 0 0 0 0 0 0 0 0
0 0 0 0 0 0 0 0 0 0 0 0 0 0 0 0 0 0 0 0 0 0 0 0 0 0 0 0 0 0 0 0 0 0 0 0 0 0 0 0 0 0 0
0 0 0 0 0 0 0 0 0 0 0 0 0 0 0 0 0 0 0 0 0 0 0 0 0 0 0 0 0 0 0 0 0 0 0 0 0 0 0 0 0 0 0
0 0 0 0 0 0 0 0 0 0 0 0 0 0 0 0 0 0 0 0 0 0 0 0 0 0 0 0 0 0 0 0 0 0 0 0 0 0 0 0 0 0 0
0 0 0 0 0 0 0 0 0 0 0 0 0 0 0 0 0 0 0 0 0 0 0 0 0 0 0 0 0 0 0 0 0 0 0 0 0 0 0 0 0 0 0
0 0 0 0 0 0 0 0 0 0 0 0 0 0 0 0 0 0 0 0 0 0 0 0 0 0 0 0 0 0 0 0 0 0 0 0 0 0 0 0 0 0 0
0 0 0 0 0 0 0 0 0 0 0 0 0 0 0 0 0 0 0 0 0 0 0 0 0 0 0 0 0 0 0 0 0 0 0 0 0 0 0 0 0 0 0
0 0 0 0 0 0 0 0 0 0 0 0 0 0 0 0 0 0 0 0 0 0 0 0 0 0 0 0 0 0 0 0 0 0 0 0 0 0 0 0 0 0 0
0 0 0 0 0 0 0 0 0 0 0 0 0 0 0 0 0 0 0 0 0 0 0 0 0 0 0 0 0 0 0 0 0 0 0 0 0 0 0 0 0 0 0
0 0 0 0 0 0 0 0 0 0 0 0 0 0 0 0 0 0 0 0 0 0 0 0 0 0 0 0 0 0 0 0 0 0 0 0 0 0 0 0 0 0 0
0 0 0 0 0 0 0 0 0 0 0 0 0 0 0 0 0 0 0 0 0 0 0 0 0 0 0 0 0 0 0 0 0 0 0 0 0 0 0 0 0 0 0
0 0 0 0 0 0 0 0 0 0 0 0 0 0 0 0 0 0 0 0 0 0 0 0 0 0 0 0 0 0 0 0 0 0 0 0 0 0 0 0 0 0 0
0 0 0 0 0 0 0 0 0 0 0 0 0 0 0 0 0 0 0 0 0 0 0 0 0 0 0 0 0 0 0 0 0 0 0 0 0 0 0 0 0 0 0
0 0 0 0 0 0 0 0 0 0 0 0 0 0 0 0 0 0 0 0 0 0 0 0 0 0 0 0 0 0 0 0 0 0 0 0 0 0 0 0 0 0 0
0 0 0 0 0 0 0 0 0 0 0 0 0 0 0 0 0 0 0 0 0 0 0 0 0 0 0 0 0 0 0 0 0 0 0 0 0 0 0 0 0 0 0
0 0 0 0 0 0 0 0 0 0 0 0 0 0 0 0 0 0 0 0 0 0 0 0 0 0 0 0 0 0 0 0 0 0 0 0 0 0 0 0 0 0 0
0 0 0 0 0 0 0 0 0 0 0 0 0 0 0 0 0 0 0 0 0 0 0 0 0 0 0 0 0 0 0 0 0 0 0 0 0 0 0 0 0 0 0
0 0 0 0 0 0 0 0 0 0 0 0 0 0 0 0 0 0 0 0 0 0 0 0 0 0 0 0 0 0 0 0 0 0 0 0 0 0 0 0 0 0 0
0 0 0 0 0 0 0 0 0 0 0 0 0 0 0 0 0 0 0 0 0 0 0 0 0 0 0 0 0 0 0 0 0 0 0 0 0 0 0 0 0 0 0
0 0 0 0 0 0 0 0 0 0 0 0 0 0 0 0 0 0 0 0 0 0 0 0 0 0 0 0 0 0 0 0 0 0 0 0 0 0 0 0 0 0 0
0 0 0 0 0 0 0 0 0 0 0 0 0 0 0 0 0 0 0 0 0 0 0 0 0 0 0 0 0 0 0 0 0 0 0 0 0 0 0 0 0 0 0
0 0 0 0 0 0 0 0 0 0 0 0 0 0 0 0 0 0 0 0 0 0 0 0 0 0 0 0 0 0 0 0 0 0 0 0 0 0 0 0 0 0 0
0 0 0 0 0 0 0 0 0 0 0 0 0 0 0 0 0 0 0 0 0 0 0 0 0 0 0 0 0 0 0 0 0 0 0 0 0 0 0 0 0 0 0
-0 -0 -0 0 0 0 0 0 0 0 0 0 0 0 0 0 0 0 0 0 0 0 0 0 0 0 0 0 0 0 0 0 0 0 0 0 0 0 0 0 0 0 -0
-0 -0 -0 -0 0 0 0 0 0 0 0 0 0 0 0 0 0 0 0 0 0 0 0 0 0 0 0 0 0 0 0 0 0 0 0 0 0 0 0 0 0 0 0
-0 -0 0 0 0 0 0 0 0 0 0 0 0 0 0 0 0 0 0 0 0 0 0 0 0 0 0 0 0 0 0 0 0 0 0 0 0 0 0 0 0 0 0
Wind_Speed_500mb
37 34 35 34 31 30 28 25 21 19 16 14 13 14 13 14 13 14 14 16 14 14 10 7 5 5 4 6 8 8 9 9 10 12 14 15 15 16 17 18 19 20 21
42 39 37 39 36 33 30 28 25 24 21 19 17 17 17 16 15 15 15 15 15 13 13 10 7 6 7 9 10 12 11 11 13 15 17 19 19 19 20 21 22 23 23
46 44 42 42 40 37 35 35 32 30 26 23 21 21 19 19 18 17 17 17 17 16 15 13 10 10 10 12 13 14 14 15 18 19 21 21 21 22 24 25 25 25 25
49 48 50 47 43 43 40 39 37 34 30 28 25 23 23 22 21 20 20 21 20 19 19 17 16 15 14 12 13 14 18 21 26 25 23 24 24 24 25 25 27 27 28
54 54 55 52 50 50 48 44 43 39 34 30 29 27 27 26 25 23 23 24 24 22 22 20 19 17 15 14 14 16 20 24 27 31 30 29 29 27 26 25 23 23 24
56 58 58 58 58 58 55 53 50 47 40 35 34 33 32 30 28 27 27 29 28 27 26 23 22 20 18 17 18 20 24 27 29 28 30 31 29 29 26 22 22 23 24
59 57 56 61 65 67 63 58 57 56 51 45 40 38 36 34 34 34 33 34 34 32 31 27 25 24 23 24 24 26 30 33 31 32 31 30 29 27 25 25 25 29 30
63 64 60 62 65 71 72 68 64 64 58 54 49 38 26 37 43 42 41 40 40 39 37 33 31 31 29 29 30 32 36 35 33 32 32 30 27 27 27 28 30 32 34
76 70 66 64 67 74 76 72 70 70 66 62 58 42 18 24 25 42 48 47 47 45 41 39 37 36 36 35 35 38 41 40 36 33 32 29 28 30 33 35 37 39 41
83 83 72 69 70 70 77 76 75 75 72 73 65 59 57 46 26 20 38 48 52 51 47 45 43 42 41 40 41 43 45 44 42 40 41 41 36 36 40 44 45 46 47
82 84 81 75 72 71 75 76 79 82 81 81 78 68 69 65 59 54 44 43 50 53 52 49 47 46 44 45 45 45 47 45 44 45 44 47 51 48 45 46 48 51 52
78 79 83 85 79 75 75 77 82 85 84 84 82 78 73 68 65 65 54 45 42 45 51 50 50 48 47 47 48 48 48 48 47 49 56 59 57 52 48 48 51 53 53
69 70 71 82 88 85 81 81 82 85 87 86 89 81 76 72 66 59 57 52 37 40 43 49 50 48 46 45 44 47 50 50 56 61 61 61 63 63 65 62 55 52 52
65 64 65 69 76 79 85 85 82 81 84 85 85 81 76 72 69 62 55 49 42 44 49 46 37 38 36 38 40 44 53 61 63 64 63 64 63 62 62 62 57 53 53
64 66 71 73 70 75 81 83 84 81 78 81 81 82 79 74 70 69 61 56 46 43 43 39 32 30 29 33 43 56 61 64 66 65 66 66 65 65 63 60 56 55 56
57 63 65 69 71 72 77 84 85 82 78 73 78 81 78 76 72 69 59 57 54 47 33 27 22 29 41 50 50 57 63 65 66 65 64 63 63 63 59 57 54 55 56
55 58 59 58 60 63 65 71 75 71 70 69 75 76 74 69 66 54 49 45 45 45 47 47 45 48 49 46 51 58 62 64 65 64 63 61 63 64 55 53 53 56 56
46 46 46 46 46 49 53 55 60 62 62 66 71 70 63 58 47 42 42 38 38 37 40 42 46 42 41 48 54 59 60 60 65 66 65 63 60 55 52 51 50 52 54
32 32 33 32 34 37 42 46 50 54 57 56 55 50 45 40 35 35 32 30 34 33 37 42 44 43 47 49 57 59 62 63 66 66 63 54 50 46 44 48 48 51 55
25 25 24 28 32 36 38 41 45 49 51 49 41 34 34 32 28 27 27 29 33 34 33 40 44 46 49 54 57 62 64 60 65 64 57 45 44 47 51 50 50 49 53
23 24 25 30 34 34 35 38 41 40 33 30 27 27 28 27 25 23 27 28 30 30 31 38 45 49 50 51 52 51 55 55 54 59 51 52 59 60 57 51 48 48 53
16 20 24 25 28 33 33 28 23 23 23 25 24 21 17 18 21 20 19 21 28 31 33 39 45 48 47 48 47 48 48 47 53 48 59 63 58 65 60 56 53 54 55
23 26 29 29 31 29 26 25 24 20 18 16 16 18 14 10 13 16 18 22 29 31 33 35 44 42 43 44 51 50 51 49 54 58 66 77 66 70 59 59 56 55 53
33 33 35 32 32 29 21 19 16 12 12 11 5 3 9 11 13 21 26 27 30 33 32 34 39 44 45 39 40 48 52 52 57 60 57 63 65 64 68 71 66 49 42
36 36 33 28 23 25 19 17 12 7 7 3 3 8 13 19 22 23 23 26 31 33 34 38 38 34 34 34 35 41 46 49 59 62 57 47 68 68 78 74 56 55 60
34 31 29 24 19 16 16 15 10 4 3 7 12 17 20 22 22 18 21 31 35 35 35 32 26 24 24 27 30 36 42 46 50 57 40 57 68 57 53 62 64 74 68
Wind_Direction_500mb
230 228 226 225 224 221 219 221 222 227 238 254 263 273 270 272 268 256 249 255 258 262 267 262 255 268 287 300 313 319 325 333 330 326 322 318 314 308 303 297 291 288 285
236 233 231 229 230 226 227 229 231 228 236 248 257 268 273 274 265 256 249 248 252 250 247 242 241 250 277 294 307 309 315 318 320 320 317 314 310 306 302 299 296 292 288
241 240 233 231 232 231 230 230 233 230 235 245 253 263 268 268 260 253 247 241 240 239 241 238 228 240 254 279 298 310 320 321 321 322 319 314 308 305 302 300 296 292 289
242 241 238 234 232 233 233 234 234 233 237 242 252 258 262 261 256 250 247 241 235 231 235 234 236 239 256 265 283 298 310 319 320 325 321 315 309 304 300 297 295 294 293
245 242 241 238 232 233 235 236 234 233 238 244 252 256 257 254 251 248 245 241 235 233 230 235 242 257 261 263 279 293 304 313 315 317 317 315 311 305 301 298 299 301 303
247 243 242 239 235 235 234 234 235 234 237 240 245 254 255 252 249 246 244 239 236 234 232 235 245 257 261 266 281 292 299 307 309 309 310 308 307 306 302 295 298 302 308
253 250 244 241 237 237 237 235 235 233 235 238 240 245 251 250 249 247 244 237 235 235 236 242 248 256 264 270 283 293 296 301 300 300 300 299 299 299 300 299 295 298 299
250 250 249 242 238 237 235 233 234 233 233 235 234 238 249 251 248 245 242 237 234 236 238 243 250 255 263 270 279 290 296 294 294 293 292 292 294 294 293 292 290 291 292
244 246 248 248 242 235 237 236 235 233 234 233 234 227 215 231 239 241 239 237 236 238 241 244 250 255 262 268 278 289 292 295 293 291 288 287 288 288 288 288 287 285 283
242 245 245 246 247 242 237 237 237 236 235 234 233 232 240 244 240 244 241 240 239 241 243 244 248 252 259 268 278 288 293 297 297 294 291 289 288 289 287 286 285 284 282
247 245 243 246 247 246 246 244 238 236 237 237 235 235 232 235 241 244 245 242 241 240 243 245 249 254 261 269 280 287 291 291 290 290 290 291 294 291 288 285 283 282 278
251 250 245 242 244 246 247 248 247 240 239 240 240 240 242 246 243 239 240 240 242 241 240 242 246 252 260 270 279 284 286 289 290 291 294 295 294 292 289 284 281 279 278
253 253 252 246 245 247 246 247 248 245 242 239 241 240 244 247 249 250 243 246 236 238 245 243 246 253 261 268 275 281 286 287 292 294 294 293 291 291 288 286 284 281 279
260 255 256 251 248 250 249 250 250 248 245 241 241 242 245 244 246 244 241 235 245 247 240 242 250 254 260 270 275 281 288 290 293 294 295 295 295 292 289 286 284 282 279
263 262 259 258 251 248 246 247 252 251 247 242 237 239 241 242 242 241 237 240 241 228 234 245 248 258 263 272 284 288 292 296 297 300 301 300 300 298 292 288 285 283 281
264 263 258 258 256 252 248 248 246 245 244 240 233 236 238 239 240 239 240 237 227 238 229 225 235 262 274 280 289 294 296 296 298 299 299 300 300 297 292 289 286 283 281
260 259 261 259 259 257 251 247 245 243 239 234 231 231 232 232 232 236 233 228 233 239 254 258 263 267 277 299 292 289 292 295 297 297 301 302 299 294 291 287 283 280 278
259 257 257 255 255 253 249 247 242 236 232 227 223 223 223 227 232 232 240 244 257 262 262 270 277 290 294 284 288 291 294 297 300 304 305 302 295 293 292 290 285 282 280
255 251 254 255 250 245 239 235 231 227 221 217 214 217 221 229 233 237 246 254 259 262 274 278 293 288 287 295 297 300 303 305 305 306 307 304 299 296 295 291 288 284 279
253 242 235 238 235 228 220 217 212 209 206 209 210 222 232 229 233 240 252 262 263 275 294 286 286 295 297 300 303 306 307 310 310 311 312 310 305 303 298 300 292 288 286
220 222 221 209 201 196 194 193 192 190 198 213 210 220 228 234 242 251 257 283 293 278 284 288 288 292 297 303 306 306 304 309 309 315 316 317 314 312 314 308 304 295 288
189 185 174 172 161 156 161 172 185 186 195 203 216 217 234 250 261 287 295 276 287 293 290 284 285 291 298 301 303 306 308 310 310 313 312 307 309 311 314 309 301 297 295
129 126 125 133 140 143 158 166 171 177 184 188 208 231 253 287 280 284 282 284 280 278 273 279 285 292 296 301 304 306 304 302 299 305 308 306 313 309 314 308 307 305 299
123 126 131 135 135 128 141 147 150 166 196 221 252 287 288 287 286 285 291 291 283 281 285 288 291 296 299 303 301 300 301 299 301 309 309 300 318 311 314 312 313 309 303
114 119 120 122 128 130 142 158 146 103 108 114 294 295 293 301 302 294 294 293 293 294 295 290 292 295 295 294 296 295 301 303 307 312 314 302 317 312 313 314 317 320 319
110 116 121 126 136 132 112 101 88 59 351 322 316 309 307 308 303 305 293 287 289 301 301 304 305 302 301 302 302 301 305 306 309 312 311 313 313 317 317 314 314 315 315
Wind_Speed_850mb
37 34 35 34 31 30 28 25 21 19 16 14 13 14 13 14 13 14 14 16 14 14 10 7 5 5 4 6 8 8 9 9 10 12 14 15 15 16 17 18 19 20 21
42 39 37 39 36 33 30 28 25 24 21 19 17 17 17 16 15 15 15 15 15 13 13 10 7 6 7 9 10 12 11 11 13 15 17 19 19 19 20 21 22 23 23
46 44 42 42 40 37 35 35 32 30 26 23 21 21 19 19 18 17 17 17 17 16 15 13 10 10 10 12 13 14 14 15 18 19 21 21 21 22 24 25 25 25 25
49 48 50 47 43 43 40 39 37 34 30 28 25 23 23 22 21 20 20 21 20 19 19 17 16 15 14 12 13 14 18 21 26 25 23 24 24 24 25 25 27 27 28
54 54 55 52 50 50 48 44 43 39 34 30 29 27 27 26 25 23 23 24 24 22 22 20 19 17 15 14 14 16 20 24 27 31 30 29 29 27 26 25 23 23 24
56 58 58 58 58 58 55 53 50 47 40 35 34 33 32 30 28 27 27 29 28 27 26 23 22 20 18 17 18 20 24 27 29 28 30 31 29 29 26 22 22 23 24
59 57 56 61 65 67 63 58 57 56 51 45 40 38 36 34 34 34 33 34 34 32 31 27 25 24 23 24 24 26 30 33 31 32 31 30 29 27 25 25 25 29 30
63 64 60 62 65 71 72 68 64 64 58 54 49 38 26 37 43 42 41 40 40 39 37 33 31 31 29 29 30 32 36 35 33 32 32 30 27 27 27 28 30 32 34
76 70 66 64 67 74 76 72 70 70 66 62 58 42 18 24 25 42 48 47 47 45 41 39 37 36 36 35 35 38 41 40 36 33 32 29 28 30 33 35 37 39 41
83 83 72 69 70 70 77 76 75 75 72 73 65 59 57 46 26 20 38 48 52 51 47 45 43 42 41 40 41 43 45 44 42 40 41 41 36 36 40 44 45 46 47
82 84 81 75 72 71 75 76 79 82 81 81 78 68 69 65 59 54 44 43 50 53 52 49 47 46 44 45 45 45 47 45 44 45 44 47 51 48 45 46 48 51 52
78 79 83 85 79 75 75 77 82 85 84 84 82 78 73 68 65 65 54 45 42 45 51 50 50 48 47 47 48 48 48 48 47 49 56 59 57 52 48 48 51 53 53
69 70 71 82 88 85 81 81 82 85 87 86 89 81 76 72 66 59 57 52 37 40 43 49 50 48 46 45 44 47 50 50 56 61 61 61 63 63 65 62 55 52 52
65 64 65 69 76 79 85 85 82 81 84 85 85 81 76 72 69 62 55 49 42 44 49 46 37 38 36 38 40 44 53 61 63 64 63 64 63 62 62 62 57 53 53
64 66 71 73 70 75 81 83 84 81 78 81 81 82 79 74 70 69 61 56 46 43 43 39 32 30 29 33 43 56 61 64 66 65 66 66 65 65 63 60 56 55 56
57 63 65 69 71 72 77 84 85 82 78 73 78 81 78 76 72 69 59 57 54 47 33 27 22 29 41 50 50 57 63 65 66 65 64 63 63 63 59 57 54 55 56
55 58 59 58 60 63 65 71 75 71 70 69 75 76 74 69 66 54 49 45 45 45 47 47 45 48 49 46 51 58 62 64 65 64 63 61 63 64 55 53 53 56 56
46 46 46 46 46 49 53 55 60 62 62 66 71 70 63 58 47 42 42 38 38 37 40 42 46 42 41 48 54 59 60 60 65 66 65 63 60 55 52 51 50 52 54
32 32 33 32 34 37 42 46 50 54 57 56 55 50 45 40 35 35 32 30 34 33 37 42 44 43 47 49 57 59 62 63 66 66 63 54 50 46 44 48 48 51 55
25 25 24 28 32 36 38 41 45 49 51 49 41 34 34 32 28 27 27 29 33 34 33 40 44 46 49 54 57 62 64 60 65 64 57 45 44 47 51 50 50 49 53
23 24 25 30 34 34 35 38 41 40 33 30 27 27 28 27 25 23 27 28 30 30 31 38 45 49 50 51 52 51 55 55 54 59 51 52 59 60 57 51 48 48 53
16 20 24 25 28 33 33 28 23 23 23 25 24 21 17 18 21 20 19 21 28 31 33 39 45 48 47 48 47 48 48 47 53 48 59 63 58 65 60 56 53 54 55
23 26 29 29 31 29 26 25 24 20 18 16 16 18 14 10 13 16 18 22 29 31 33 35 44 42 43 44 51 50 51 49 54 58 66 77 66 70 59 59 56 55 53
33 33 35 32 32 29 21 19 16 12 12 11 5 3 9 11 13 21 26 27 30 33 32 34 39 44 45 39 40 48 52 52 57 60 57 63 65 64 68 71 66 49 42
36 36 33 28 23 25 19 17 12 7 7 3 3 8 13 19 22 23 23 26 31 33 34 38 38 34 34 34 35 41 46 49 59 62 57 47 68 68 78 74 56 55 60
34 31 29 24 19 16 16 15 10 4 3 7 12 17 20 22 22 18 21 31 35 35 35 32 26 24 24 27 30 36 42 46 50 57 40 57 68 57 53 62 64 74 68
Wind_Direction_850mb
230 228 226 225 224 221 219 221 222 227 238 254 263 273 270 272 268 256 249 255 258 262 267 262 255 268 287 300 313 319 325 333 330 326 322 318 314 308 303 297 291 288 285
236 233 231 229 230 226 227 229 231 228 236 248 257 268 273 274 265 256 249 248 252 250 247 242 241 250 277 294 307 309 315 318 320 320 317 314 310 306 302 299 296 292 288
241 240 233 231 232 231 230 230 233 230 235 245 253 263 268 268 260 253 247 241 240 239 241 238 228 240 254 279 298 310 320 321 321 322 319 314 308 305 302 300 296 292 289
242 241 238 234 232 233 233 234 234 233 237 242 252 258 262 261 256 250 247 241 235 231 235 234 236 239 256 265 283 298 310 319 320 325 321 315 309 304 300 297 295 294 293
245 242 241 238 232 233 235 236 234 233 238 244 252 256 257 254 251 248 245 241 235 233 230 235 242 257 261 263 279 293 304 313 315 317 317 315 311 305 301 298 299 301 303
247 243 242 239 235 235 234 234 235 234 237 240 245 254 255 252 249 246 244 239 236 234 232 235 245 257 261 266 281 292 299 307 309 309 310 308 307 306 302 295 298 302 308
253 250 244 241 237 237 237 235 235 233 235 238 240 245 251 250 249 247 244 237 235 235 236 242 248 256 264 270 283 293 296 301 300 300 300 299 299 299 300 299 295 298 299
250 250 249 242 238 237 235 233 234 233 233 235 234 238 249 251 248 245 242 237 234 236 238 243 250 255 263 270 279 290 296 294 294 293 292 292 294 294 293 292 290 291 292
244 246 248 248 242 235 237 236 235 233 234 233 234 227 215 231 239 241 239 237 236 238 241 244 250 255 262 268 278 289 292 295 293 291 288 287 288 288 288 288 287 285 283
242 245 245 246 247 242 237 237 237 236 235 234 233 232 240 244 240 244 241 240 239 241 243 244 248 252 259 268 278 288 293 297 297 294 291 289 288 289 287 286 285 284 282
247 245 243 246 247 246 246 244 238 236 237 237 235 235 232 235 241 244 245 242 241 240 243 245 249 254 261 269 280 287 291 291 290 290 290 291 294 291 288 285 283 282 278
251 250 245 242 244 246 247 248 247 240 239 240 240 240 242 246 243 239 240 240 242 241 240 242 246 252 260 270 279 284 286 289 290 291 294 295 294 292 289 284 281 279 278
253 253 252 246 245 247 246 247 248 245 242 239 241 240 244 247 249 250 243 246 236 238 245 243 246 253 261 268 275 281 286 287 292 294 294 293 291 291 288 286 284 281 279
260 255 256 251 248 250 249 250 250 248 245 241 241 242 245 244 246 244 241 235 245 247 240 242 250 254 260 270 275 281 288 290 293 294 295 295 295 292 289 286 284 282 279
263 262 259 258 251 248 246 247 252 251 247 242 237 239 241 242 242 241 237 240 241 228 234 245 248 258 263 272 284 288 292 296 297 300 301 300 300 298 292 288 285 283 281
264 263 258 258 256 252 248 248 246 245 244 240 233 236 238 239 240 239 240 237 227 238 229 225 235 262 274 280 289 294 296 296 298 299 299 300 300 297 292 289 286 283 281
260 259 261 259 259 257 251 247 245 243 239 234 231 231 232 232 232 236 233 228 233 239 254 258 263 267 277 299 292 289 292 295 297 297 301 302 299 294 291 287 283 280 278
259 257 257 255 255 253 249 247 242 236 232 227 223 223 223 227 232 232 240 244 257 262 262 270 277 290 294 284 288 291 294 297 300 304 305 302 295 293 292 290 285 282 280
255 251 254 255 250 245 239 235 231 227 221 217 214 217 221 229 233 237 246 254 259 262 274 278 293 288 287 295 297 300 303 305 305 306 307 304 299 296 295 291 288 284 279
253 242 235 238 235 228 220 217 212 209 206 209 210 222 232 229 233 240 252 262 263 275 294 286 286 295 297 300 303 306 307 310 310 311 312 310 305 303 298 300 292 288 286
220 222 221 209 201 196 194 193 192 190 198 213 210 220 228 234 242 251 257 283 293 278 284 288 288 292 297 303 306 306 304 309 309 315 316 317 314 312 314 308 304 295 288
189 185 174 172 161 156 161 172 185 186 195 203 216 217 234 250 261 287 295 276 287 293 290 284 285 291 298 301 303 306 308 310 310 313 312 307 309 311 314 309 301 297 295
129 126 125 133 140 143 158 166 171 177 184 188 208 231 253 287 280 284 282 284 280 278 273 279 285 292 296 301 304 306 304 302 299 305 308 306 313 309 314 308 307 305 299
123 126 131 135 135 128 141 147 150 166 196 221 252 287 288 287 286 285 291 291 283 281 285 288 291 296 299 303 301 300 301 299 301 309 309 300 318 311 314 312 313 309 303
114 119 120 122 128 130 142 158 146 103 108 114 294 295 293 301 302 294 294 293 293 294 295 290 292 295 295 294 296 295 301 303 307 312 314 302 317 312 313 314 317 320 319
110 116 121 126 136 132 112 101 88 59 351 322 316 309 307 308 303 305 293 287 289 301 301 304 305 302 301 302 302 301 305 306 309 312 311 313 313 317 317 314 314 315 315